軌道要素
Epoch 2015 Apr. 8.0 TT = JDT 2457120.5
T 2015 Apr. 18.60644 TT MPCW
q 2.3837791 (2000.0) P Q
n 0.11638220 Peri. 31.41203 +0.76392923 -0.64432003
a 4.1547510 Node 8.96592 +0.53462496 +0.60109567
e 0.4262522 Incl. 13.18588 +0.36137001 +0.47279561
P 8.47
From 248 observations 2006 Aug. 29-2016 Feb. 5, mean residual 0".5.
|